User: anonymous   Login
Location: Chanteloup
(48.8560°N, 2.7390°E)
Time: 16:20:35
(UTC+00:00)
Language:

Cosmos 1300 - Orbit

View from above orbital plane
View from above orbital plane
View from above satellite
View from above satellite

Ground track
Ground track

The orbit data is extracted from the following two-line orbital elements,

1 12785U 81082A   22024.96089715  .00001261  00000-0  59528-4 0  9990
2 12785  82.5018 207.5692 0002132 118.0008  33.2341 15.18565741206823
Epoch (UTC): 24 January 2022 23:03:41
Eccentricity: 0.0002132
inclination: 82.5018°
perigee height: 509 km
apogee height: 511 km
right ascension of ascending node: 207.5692°
argument of perigee: 118.0008°
revolutions per day: 15.18565741
mean anomaly at epoch: 33.2341°
orbit number at epoch: 20682

The dashed part of the orbit path shows where the satellite is in the earth's shadow,  

DLR